Weather History for Camdenton, MO

Change the Weather History Date:

Thursday, January 24, 2013

  Actual Average (KAIZ) Record (KAIZ)
Temperature  
Mean Temperature 24 °F -  
Max Temperature 32 °F 39 °F 59 °F (2006)
Min Temperature 17 °F 22 °F -5 °F (2003)
Degree Days  
Heating Degree Days 40    
Moisture  
Dew Point 9 °F    
Average Humidity 49    
Maximum Humidity 68    
Minimum Humidity 32    
Precipitation  
Precipitation 0.00 in - - ()
Sea Level Pressure  
Sea Level Pressure 30.34 in    
Wind  
Wind Speed 9 mph (ENE)    
Max Wind Speed 16 mph    
Max Gust Speed 18 mph    
Visibility 10 miles    
Events      
Averages and records for this station are not official NWS values.
T = Trace of Precipitation, MM = Missing Value Source: NWS Daily Summary

Daily Weather History Graph

Daily Weather History Graph

Search for Another Location

Airport:

Trip Planner

Search our weather history database for the weather conditions in past years. The results will help you decide how hot, cold, wet, or windy it might be!

Date:

Astronomy

Jan. 24, 2013 Rise Set
Actual Time 7:20 AM CST 5:25 PM CST
Civil Twilight 6:52 AM CST 5:53 PM CST
Nautical Twilight 6:20 AM CST 6:25 PM CST
Astronomical Twilight 5:49 AM CST 6:56 PM CST
Moon 3:28 PM CST (1/24) 5:18 AM CST (1/24)
Length of Visible Light 11h 00m
Length of Day
10h 04m
Waxing Gibbous, 94% of the Moon is Illuminated
Jan 24
Waxing Gibbous
Jan 26
Full
Feb 3
Last Quarter
Feb 10
New
Feb 17
First Quarter

Hourly Weather History & Observations

Time (CST) Temp. Windchill Dew Point Humidity Pressure Visibility Wind Dir Wind Speed Gust Speed Precip Events Conditions
12:15 AM 30.2 °F 23.4 °F 19.4 °F 64% 30.34 in 10.0 mi North 6.9 mph - N/A   Clear
12:35 AM 30.2 °F 22.6 °F 17.6 °F 60% 30.36 in 10.0 mi NNW 8.1 mph - N/A   Clear
12:55 AM 28.4 °F 19.7 °F 17.6 °F 64% 30.37 in 10.0 mi NNW 9.2 mph - N/A   Clear
1:15 AM 28.4 °F 22.2 °F 15.8 °F 59% 30.36 in 10.0 mi North 5.8 mph - N/A   Clear
1:35 AM 28.4 °F 23.3 °F 15.8 °F 59% 30.38 in 10.0 mi North 4.6 mph - N/A   Clear
1:55 AM 28.4 °F 20.4 °F 15.8 °F 59% 30.38 in 10.0 mi North 8.1 mph - N/A   Clear
2:15 AM 26.6 °F 17.5 °F 15.8 °F 64% 30.38 in 10.0 mi North 9.2 mph - N/A   Clear
2:35 AM 26.6 °F 19.1 °F 15.8 °F 64% 30.38 in 10.0 mi North 6.9 mph - N/A   Clear
2:55 AM 26.6 °F 18.2 °F 15.8 °F 64% 30.39 in 10.0 mi North 8.1 mph - N/A   Clear
3:15 AM 24.8 °F 16.1 °F 14.0 °F 64% 30.41 in 10.0 mi North 8.1 mph - N/A   Clear
3:35 AM 24.8 °F 15.3 °F 10.4 °F 54% 30.40 in 10.0 mi North 9.2 mph 16.1 mph N/A   Clear
3:55 AM 23.0 °F 13.9 °F 10.4 °F 59% 30.40 in 10.0 mi North 8.1 mph - N/A   Clear
4:15 AM 23.0 °F 11.7 °F 10.4 °F 59% 30.41 in 10.0 mi NNE 11.5 mph 17.3 mph N/A   Clear
4:35 AM 23.0 °F 14.7 °F 10.4 °F 59% 30.41 in 10.0 mi North 6.9 mph - N/A   Clear
4:55 AM 21.2 °F 11.7 °F 10.4 °F 63% 30.41 in 10.0 mi NNE 8.1 mph - N/A   Clear
5:15 AM 21.2 °F 10.9 °F 10.4 °F 63% 30.42 in 10.0 mi NNE 9.2 mph - N/A   Clear
5:35 AM 21.2 °F 12.6 °F 10.4 °F 63% 30.42 in 10.0 mi NNE 6.9 mph - N/A   Clear
5:55 AM 19.4 °F 7.9 °F 8.6 °F 63% 30.43 in 10.0 mi NNE 10.4 mph - N/A   Clear
6:15 AM 19.4 °F 8.6 °F 8.6 °F 63% 30.43 in 10.0 mi NNE 9.2 mph - N/A   Clear
6:35 AM 19.4 °F 10.4 °F 6.8 °F 58% 30.44 in 10.0 mi NNE 6.9 mph 16.1 mph N/A   Clear
6:55 AM 17.6 °F 7.3 °F 8.6 °F 68% 30.44 in 10.0 mi NNE 8.1 mph - N/A   Clear
7:15 AM 17.6 °F 6.4 °F 5.0 °F 58% 30.44 in 10.0 mi NNE 9.2 mph 16.1 mph N/A   Clear
7:35 AM 17.6 °F 5.7 °F 5.0 °F 58% 30.45 in 10.0 mi NE 10.4 mph 18.4 mph N/A   Clear
7:55 AM 17.6 °F 7.3 °F 5.0 °F 58% 30.46 in 10.0 mi NE 8.1 mph - N/A   Clear
8:15 AM 17.6 °F 6.4 °F 5.0 °F 58% 30.46 in 10.0 mi NE 9.2 mph - N/A   Clear
8:35 AM 17.6 °F 6.4 °F 6.8 °F 63% 30.47 in 10.0 mi NE 9.2 mph - N/A   Clear
8:55 AM 17.6 °F 6.4 °F 6.8 °F 63% 30.47 in 10.0 mi NE 9.2 mph 17.3 mph N/A   Clear
9:15 AM 17.6 °F 5.7 °F 6.8 °F 63% 30.47 in 10.0 mi ENE 10.4 mph 16.1 mph N/A   Clear
9:35 AM 19.4 °F 8.6 °F 8.6 °F 63% 30.48 in 10.0 mi ENE 9.2 mph - N/A   Clear
9:55 AM 19.4 °F 7.9 °F 8.6 °F 63% 30.48 in 10.0 mi NE 10.4 mph - N/A   Clear
10:15 AM 19.4 °F 8.6 °F 8.6 °F 63% 30.48 in 10.0 mi NE 9.2 mph - N/A   Clear
10:35 AM 21.2 °F 10.9 °F 8.6 °F 58% 30.48 in 10.0 mi East 9.2 mph 16.1 mph N/A   Clear
10:55 AM 23.0 °F 12.4 °F 8.6 °F 54% 30.47 in 10.0 mi East 10.4 mph - N/A   Clear
11:15 AM 23.0 °F 12.4 °F 8.6 °F 54% 30.46 in 10.0 mi ENE 10.4 mph - N/A   Clear
11:35 AM 24.8 °F 14.6 °F 8.6 °F 50% 30.45 in 10.0 mi ESE 10.4 mph - N/A   Clear
11:55 AM 26.6 °F 15.2 °F 6.8 °F 43% 30.43 in 10.0 mi East 13.8 mph 18.4 mph N/A   Clear
12:15 PM 28.4 °F 19.7 °F 6.8 °F 40% 30.42 in 10.0 mi ENE 9.2 mph - N/A   Clear
12:35 PM 28.4 °F 19.1 °F 6.8 °F 40% 30.40 in 10.0 mi East 10.4 mph 18.4 mph N/A   Clear
12:55 PM 30.2 °F 21.3 °F 6.8 °F 37% 30.39 in 10.0 mi East 10.4 mph 16.1 mph N/A   Scattered Clouds
1:15 PM 30.2 °F 21.3 °F 6.8 °F 37% 30.37 in 10.0 mi East 10.4 mph 17.3 mph N/A   Scattered Clouds
1:35 PM 32.0 °F 23.6 °F 6.8 °F 35% 30.35 in 10.0 mi ENE 10.4 mph 16.1 mph N/A   Clear
1:55 PM 30.2 °F 21.3 °F 5.0 °F 34% 30.34 in 10.0 mi East 10.4 mph - N/A   Mostly Cloudy
2:15 PM 30.2 °F 21.9 °F 5.0 °F 34% 30.33 in 10.0 mi East 9.2 mph - N/A   Mostly Cloudy
2:35 PM 30.2 °F 20.8 °F 5.0 °F 34% 30.32 in 10.0 mi East 11.5 mph 18.4 mph N/A   Clear
2:55 PM 32.0 °F 23.6 °F 5.0 °F 32% 30.31 in 10.0 mi East 10.4 mph 16.1 mph N/A   Clear
3:15 PM 32.0 °F 22.5 °F 5.0 °F 32% 30.31 in 10.0 mi East 12.7 mph - N/A   Scattered Clouds
3:35 PM 32.0 °F 23.6 °F 5.0 °F 32% 30.29 in 10.0 mi ENE 10.4 mph - N/A   Scattered Clouds
3:55 PM 32.0 °F 23.0 °F 5.0 °F 32% 30.28 in 10.0 mi East 11.5 mph - N/A   Mostly Cloudy
4:15 PM 32.0 °F 24.2 °F 5.0 °F 32% 30.27 in 10.0 mi ENE 9.2 mph - N/A   Overcast
4:35 PM 32.0 °F 23.0 °F 6.8 °F 35% 30.27 in 10.0 mi East 11.5 mph - N/A   Overcast
4:55 PM 32.0 °F 23.6 °F 6.8 °F 35% 30.26 in 10.0 mi East 10.4 mph - N/A   Overcast
5:15 PM 32.0 °F 24.8 °F 6.8 °F 35% 30.25 in 10.0 mi East 8.1 mph - N/A   Overcast
5:35 PM 32.0 °F 24.2 °F 6.8 °F 35% 30.25 in 10.0 mi ENE 9.2 mph - N/A   Overcast
5:55 PM 32.0 °F 24.2 °F 6.8 °F 35% 30.26 in 10.0 mi East 9.2 mph - N/A   Overcast
6:15 PM 32.0 °F 25.6 °F 8.6 °F 38% 30.25 in 10.0 mi East 6.9 mph - N/A   Overcast
6:35 PM 32.0 °F 24.2 °F 8.6 °F 38% 30.24 in 10.0 mi East 9.2 mph - N/A   Overcast
6:55 PM 32.0 °F 23.0 °F 8.6 °F 38% 30.24 in 10.0 mi East 11.5 mph 16.1 mph N/A   Overcast
7:15 PM 32.0 °F 23.0 °F 8.6 °F 38% 30.21 in 10.0 mi East 11.5 mph - N/A   Overcast
7:35 PM 32.0 °F 24.2 °F 8.6 °F 38% 30.21 in 10.0 mi East 9.2 mph - N/A   Overcast
7:55 PM 32.0 °F 24.8 °F 8.6 °F 38% 30.22 in 10.0 mi East 8.1 mph - N/A   Overcast
8:15 PM 32.0 °F 25.6 °F 8.6 °F 38% 30.22 in 10.0 mi ESE 6.9 mph - N/A   Overcast
8:35 PM 32.0 °F 23.6 °F 8.6 °F 38% 30.22 in 10.0 mi ESE 10.4 mph - N/A   Overcast
8:55 PM 32.0 °F 23.0 °F 8.6 °F 38% 30.21 in 10.0 mi ESE 11.5 mph 17.3 mph N/A   Overcast
9:15 PM 32.0 °F 21.2 °F 8.6 °F 38% 30.17 in 10.0 mi ESE 16.1 mph - N/A   Overcast
9:35 PM 32.0 °F 23.0 °F 8.6 °F 38% 30.20 in 10.0 mi ESE 11.5 mph - N/A   Overcast
10:15 PM 32.0 °F 25.6 °F 10.4 °F 41% 30.18 in 10.0 mi ESE 6.9 mph - N/A   Overcast
10:35 PM 32.0 °F 25.6 °F 8.6 °F 38% 30.19 in 10.0 mi ESE 6.9 mph - N/A   Overcast
10:55 PM 32.0 °F 25.6 °F 10.4 °F 41% 30.19 in 10.0 mi SE 6.9 mph - N/A   Overcast
11:15 PM 32.0 °F 23.6 °F 10.4 °F 41% 30.17 in 10.0 mi ESE 10.4 mph - N/A   Overcast
11:35 PM 32.0 °F 24.8 °F 10.4 °F 41% 30.17 in 10.0 mi SE 8.1 mph - N/A   Overcast
11:55 PM 32.0 °F 24.8 °F 12.2 °F 44% 30.17 in 10.0 mi SSE 8.1 mph - N/A   Overcast